Tracking 31027 objects as of 19-Jul-2025
HD Live streaming from Space Station
objects crossing your sky now

EMISAT

Track EMISAT now!
10-day predictions


NORAD ID: 44078
Int'l Code: 2019-018A
Perigee: 739.7 km
Apogee: 766.9 km
Inclination: 98.3 °
Period: 99.7 minutes
Semi major axis: 7124 km
RCS: Unknown
Launch date: April 1, 2019
Source: India (IND)
Launch site: SRIHARIKOTA (SRI)

EMISAT is an Indian satellite featured with instrumentation to detect, locate and characterize electromagnetic signals, such as those transmitted by military radars.
Your satellite tracking list
SPACEBEE-134
Track 1 satellite(s)




NASA's NSSDC Master Catalog

Two Line Element Set (TLE):
1 44078U 19018A   25199.84018079  .00000165  00000-0  60923-4 0  9991
2 44078  98.2848 255.7926 0019130 139.5117 220.7501 14.43738905331953
Source of the keplerian elements: AFSPC